STARLINK-5680, 55455

Orbit data source: Space-Track

STARLINK-5680, 55455 is a payload satellite owned by SpaceX/Seattle (US) in LEO that was launched on Thu, 02 Feb 2023 UTC via an FALCON 9 launch vehicle from the Air Force Eastern Test Range (AFETR). Payload-class satellites include a variety of spacecraft equipped with specific instruments for various scientific and technological missions. These include communications satellites like Starlink; space stations such as the ISS; scientific satellites like the Hubble; Earth observation satellites from companies like Planet Labs, Umbra, and HawkEye 360; GPS; miniature CubeSats for education and research; and military/defense satellites.

Loading next visibility...
Identifier
55455, 2023-015G
Orbit
LEO
Country
Flag of USUS
Related business
Manufacturer
SpaceX/Seattle
Mission
Operational Commercial Communications
Bus & Motor
STARLINK, Unknown motor
Mass
305 kg wet, ~290 kg dry
Launch date (UTC)
2023-02-02 (4 years ago)
Launch vehicle
FALCON 9
Launch site
Air Force Eastern Test Range (AFETR)
Object type
Payload
Rocket body
Debris
Shape & HBR
Box + 1 Pan, 10.1 m
Radar Cross Section
13.562 m², Large (>1 m²)

Expand to show TLE details & history
Last TLE update: 7 hours ago

TLE from 7 hours ago
0 STARLINK-5680
1 55455U 23015G   26258.54830058  .00000456  00000-0  26121-4 0  9992
2 55455  43.0049 336.9152 0001886 289.0847  70.9800 15.27576721199754
Epoch: 2026-09-15T13:09Z
TLE epoch observation values (Epoch: 2026-09-15T13:09:33.170Z)
Latitude
-0.00003°
Longitude
145.0143°
Altitude
482.413 km
Speed
7.626 km/s
True Right ascension
22h 27m 39s
True Declination
0° 00' 00"
Sunlit
Object was in full shadow at epoch
Visualization orbit readout
Latitude
Unknown
Longitude
Unknown
Altitude
Unknown
Speed
Unknown
Apparent Right ascension
Unknown
Apparent Declination
Unknown
Sunlit
N/A
Visualization observer readout
Local Sidereal Time
12:58:08
Azimuth
Unknown
Elevation
Unknown
Doppler factor
Unknown
Orbital elements
Apogee altitude
486.298 km
Perigee altitude
483.709 km
Semi-major axis
6,863.14 km
Eccentricity
0.00019
Inclination
43.0049°
RAAN
336.9152°
Arg. of periapsis
289.0847°
True anomaly
71.00043°
Mean anomaly
70.98°
Eccentric anomaly
70.99022°
Mean motion
3.81732 °/min
Orbital period
94.31 mins
BSTAR
0.000026121
Loading maneuver chart data...
Computing Atmospheric mass density...
Loading historical data...
Loading historical data...
Loading historical data...
Loading historical data...
Loading historical data...
Loading historical data...
Loading historical data...

Documentation

Showing up to 5 results
|